Weather History for Haleyville, AL

Change the Weather History Date:

Monday, March 19, 2012

  Actual Average (KJFX) Record (KJFX)
Temperature  
Mean Temperature 69 °F -  
Max Temperature 83 °F 68 °F 88 °F (1982)
Min Temperature 55 °F 38 °F 25 °F (1967)
Cooling Degree Days 4    
Growing Degree Days 19 (Base 50)    
Moisture  
Dew Point 55 °F    
Average Humidity 58    
Maximum Humidity 93    
Minimum Humidity 34    
Precipitation  
Precipitation 0.00 in - - ()
Sea Level Pressure  
Sea Level Pressure 30.16 in    
Wind  
Wind Speed 4 mph (South)    
Max Wind Speed 17 mph    
Max Gust Speed 23 mph    
Visibility 10 miles    
Events      
Averages and records for this station are not official NWS values.
T = Trace of Precipitation, MM = Missing Value Source: NWS Daily Summary

Daily Weather History Graph

Daily Weather History Graph

Search for Another Location

Airport:

Trip Planner

Search our weather history database for the weather conditions in past years. The results will help you decide how hot, cold, wet, or windy it might be!

Date:

Astronomy

Mar. 19, 2012 Rise Set
Actual Time 6:54 AM CDT 7:01 PM CDT
Civil Twilight 6:29 AM CDT 7:26 PM CDT
Nautical Twilight 6:00 AM CDT 7:55 PM CDT
Astronomical Twilight 5:31 AM CDT 8:25 PM CDT
Moon 5:00 AM CDT 4:34 PM CDT
Length of Visible Light 12h 56m
Length of Day
12h 06m
Waning Crescent, 8% of the Moon is Illuminated
Mar 19
Waning Crescent
Mar 22
New
Mar 30
First Quarter
Apr 6
Full
Apr 13
Last Quarter

Hourly Weather History & Observations

Time (CDT) Temp. Heat Index Dew Point Humidity Pressure Visibility Wind Dir Wind Speed Gust Speed Precip Events Conditions
12:56 AM 66.9 °F - 54.0 °F 63% 30.19 in 10.0 mi Calm Calm - 0.00 in   Clear
1:56 AM 64.9 °F - 54.9 °F 70% 30.19 in 10.0 mi Calm Calm - N/A   Clear
2:56 AM 65.8 °F - 52.9 °F 63% 30.19 in 10.0 mi Calm Calm - N/A   Clear
4:56 AM 63.0 °F - 54.9 °F 75% 30.17 in 10.0 mi South 3.5 mph - N/A   Clear
5:56 AM 61.0 °F - 54.0 °F 78% 30.17 in 10.0 mi Calm Calm - N/A   Clear
6:56 AM 55.9 °F - 54.0 °F 93% 30.19 in 10.0 mi Calm Calm - 0.00 in   Clear
7:56 AM 61.9 °F - 56.8 °F 84% 30.20 in 10.0 mi Calm Calm - N/A   Clear
8:56 AM 64.9 °F - 57.9 °F 78% 30.22 in 10.0 mi South 5.8 mph - N/A   Clear
9:56 AM 70.0 °F - 57.9 °F 65% 30.24 in 10.0 mi South 6.9 mph - N/A   Clear
10:56 AM 73.9 °F - 55.9 °F 53% 30.23 in 10.0 mi SSW 8.1 mph - N/A   Clear
11:56 AM 75.9 °F - 54.0 °F 46% 30.22 in 10.0 mi SSE 6.9 mph - N/A   Clear
12:56 PM 79.9 °F - 52.9 °F 39% 30.19 in 10.0 mi SSE 11.5 mph 21.9 mph N/A   Clear
1:56 PM 81.9 °F - 52.0 °F 35% 30.16 in 10.0 mi South 17.3 mph 23.0 mph N/A   Clear
2:56 PM 83.8 °F - 52.9 °F 34% 30.13 in 10.0 mi South 12.7 mph 20.7 mph N/A   Clear
3:56 PM 79.9 °F - 52.9 °F 39% 30.12 in 10.0 mi South 12.7 mph - N/A   Clear
4:56 PM 81.9 °F 81.1 °F 54.0 °F 38% 30.10 in 10.0 mi South 16.1 mph 23.0 mph N/A   Clear
5:56 PM 79.0 °F - 54.9 °F 43% 30.10 in 10.0 mi South 11.5 mph - N/A   Clear
6:56 PM 75.9 °F - 54.9 °F 48% 30.10 in 10.0 mi Calm Calm - N/A   Clear
7:56 PM 73.9 °F - 54.9 °F 51% 30.10 in 10.0 mi Calm Calm - N/A   Clear
8:56 PM 72.9 °F - 54.0 °F 51% 30.10 in 10.0 mi SSE 8.1 mph - N/A   Clear
9:56 PM 70.9 °F - 54.9 °F 57% 30.11 in 10.0 mi SSE 4.6 mph - N/A   Clear
10:56 PM 70.0 °F - 54.9 °F 59% 30.11 in 10.0 mi SSE 6.9 mph - N/A   Clear
11:56 PM 68.9 °F - 54.9 °F 61% 30.10 in 10.0 mi SSE 8.1 mph - N/A   Clear